﻿測定場所 (Monitoring sites),日付 (Measurement date),時間 (Measurement time),線量率 最大値 (max) μGy/h,線量率 最小値 (min) μGy/h,線量率 平均値 (average) μGy/h,
調布 (Chofu),2022-01-16,23:01～24:00,0.0306,0.0266,0.0288,
調布 (Chofu),2022-01-16,22:01～23:00,0.0310,0.0269,0.0286,
調布 (Chofu),2022-01-16,21:01～22:00,0.0298,0.0261,0.0279,
調布 (Chofu),2022-01-16,20:01～21:00,0.0311,0.0255,0.0279,
調布 (Chofu),2022-01-16,19:01～20:00,0.0296,0.0257,0.0276,
調布 (Chofu),2022-01-16,18:01～19:00,0.0297,0.0257,0.0275,
調布 (Chofu),2022-01-16,17:01～18:00,0.0288,0.0257,0.0273,
調布 (Chofu),2022-01-16,16:01～17:00,0.0286,0.0251,0.0269,
調布 (Chofu),2022-01-16,15:01～16:00,0.0282,0.0248,0.0268,
調布 (Chofu),2022-01-16,14:01～15:00,0.0290,0.0257,0.0270,
調布 (Chofu),2022-01-16,13:01～14:00,0.0300,0.0258,0.0273,
調布 (Chofu),2022-01-16,12:01～13:00,0.0296,0.0258,0.0278,
調布 (Chofu),2022-01-16,11:01～12:00,0.0305,0.0258,0.0279,
調布 (Chofu),2022-01-16,10:01～11:00,0.0308,0.0268,0.0285,
調布 (Chofu),2022-01-16,09:01～10:00,0.0303,0.0272,0.0290,
調布 (Chofu),2022-01-16,08:01～09:00,0.0311,0.0271,0.0292,
調布 (Chofu),2022-01-16,07:01～08:00,0.0321,0.0279,0.0302,
調布 (Chofu),2022-01-16,06:01～07:00,0.0314,0.0277,0.0295,
調布 (Chofu),2022-01-16,05:01～06:00,0.0317,0.0276,0.0294,
調布 (Chofu),2022-01-16,04:01～05:00,0.0313,0.0269,0.0292,
調布 (Chofu),2022-01-16,03:01～04:00,0.0308,0.0274,0.0293,
調布 (Chofu),2022-01-16,02:01～03:00,0.0305,0.0260,0.0283,
調布 (Chofu),2022-01-16,01:01～02:00,0.0304,0.0250,0.0273,
調布 (Chofu),2022-01-16,00:01～01:00,0.0288,0.0252,0.0271,
調布 (Chofu),2022-01-15,23:01～24:00,0.0282,0.0246,0.0269,
調布 (Chofu),2022-01-15,22:01～23:00,0.0288,0.0252,0.0269,
調布 (Chofu),2022-01-15,21:01～22:00,0.0283,0.0246,0.0269,
調布 (Chofu),2022-01-15,20:01～21:00,0.0291,0.0251,0.0268,
調布 (Chofu),2022-01-15,19:01～20:00,0.0287,0.0241,0.0267,
調布 (Chofu),2022-01-15,18:01～19:00,0.0289,0.0248,0.0266,
調布 (Chofu),2022-01-15,17:01～18:00,0.0283,0.0243,0.0262,
調布 (Chofu),2022-01-15,16:01～17:00,0.0295,0.0245,0.0265,
調布 (Chofu),2022-01-15,15:01～16:00,0.0294,0.0245,0.0266,
調布 (Chofu),2022-01-15,14:01～15:00,0.0283,0.0252,0.0265,
調布 (Chofu),2022-01-15,13:01～14:00,0.0295,0.0241,0.0267,
調布 (Chofu),2022-01-15,12:01～13:00,0.0285,0.0254,0.0268,
調布 (Chofu),2022-01-15,11:01～12:00,0.0290,0.0250,0.0269,
調布 (Chofu),2022-01-15,10:01～11:00,0.0291,0.0260,0.0276,
調布 (Chofu),2022-01-15,09:01～10:00,0.0295,0.0264,0.0282,
調布 (Chofu),2022-01-15,08:01～09:00,0.0308,0.0266,0.0288,
調布 (Chofu),2022-01-15,07:01～08:00,0.0316,0.0273,0.0290,
調布 (Chofu),2022-01-15,06:01～07:00,0.0314,0.0266,0.0290,
調布 (Chofu),2022-01-15,05:01～06:00,0.0310,0.0267,0.0289,
調布 (Chofu),2022-01-15,04:01～05:00,0.0307,0.0273,0.0289,
調布 (Chofu),2022-01-15,03:01～04:00,0.0305,0.0261,0.0282,
調布 (Chofu),2022-01-15,02:01～03:00,0.0295,0.0266,0.0279,
調布 (Chofu),2022-01-15,01:01～02:00,0.0298,0.0258,0.0276,
調布 (Chofu),2022-01-15,00:01～01:00,0.0293,0.0254,0.0275,
調布 (Chofu),2022-01-14,23:01～24:00,0.0301,0.0253,0.0272,
調布 (Chofu),2022-01-14,22:01～23:00,0.0298,0.0250,0.0270,
調布 (Chofu),2022-01-14,21:01～22:00,0.0288,0.0250,0.0271,
調布 (Chofu),2022-01-14,20:01～21:00,0.0294,0.0247,0.0273,
調布 (Chofu),2022-01-14,19:01～20:00,0.0291,0.0254,0.0273,
調布 (Chofu),2022-01-14,18:01～19:00,0.0297,0.0261,0.0275,
調布 (Chofu),2022-01-14,17:01～18:00,0.0299,0.0257,0.0276,
調布 (Chofu),2022-01-14,16:01～17:00,0.0293,0.0254,0.0275,
調布 (Chofu),2022-01-14,15:01～16:00,0.0296,0.0257,0.0275,
調布 (Chofu),2022-01-14,14:01～15:00,0.0299,0.0258,0.0274,
調布 (Chofu),2022-01-14,13:01～14:00,0.0293,0.0259,0.0274,
調布 (Chofu),2022-01-14,12:01～13:00,0.0302,0.0251,0.0281,
調布 (Chofu),2022-01-14,11:01～12:00,0.0305,0.0264,0.0284,
調布 (Chofu),2022-01-14,10:01～11:00,0.0305,0.0266,0.0287,
調布 (Chofu),2022-01-14,09:01～10:00,0.0305,0.0273,0.0287,
調布 (Chofu),2022-01-14,08:01～09:00,0.0302,0.0268,0.0283,
調布 (Chofu),2022-01-14,07:01～08:00,0.0299,0.0260,0.0281,
調布 (Chofu),2022-01-14,06:01～07:00,0.0290,0.0257,0.0278,
調布 (Chofu),2022-01-14,05:01～06:00,0.0296,0.0254,0.0278,
調布 (Chofu),2022-01-14,04:01～05:00,0.0298,0.0265,0.0279,
調布 (Chofu),2022-01-14,03:01～04:00,0.0305,0.0256,0.0280,
調布 (Chofu),2022-01-14,02:01～03:00,0.0295,0.0253,0.0276,
調布 (Chofu),2022-01-14,01:01～02:00,0.0292,0.0258,0.0275,
調布 (Chofu),2022-01-14,00:01～01:00,0.0300,0.0263,0.0280,
調布 (Chofu),2022-01-13,23:01～24:00,0.0293,0.0257,0.0278,
調布 (Chofu),2022-01-13,22:01～23:00,0.0296,0.0265,0.0276,
調布 (Chofu),2022-01-13,21:01～22:00,0.0289,0.0260,0.0276,
調布 (Chofu),2022-01-13,20:01～21:00,0.0297,0.0261,0.0278,
調布 (Chofu),2022-01-13,19:01～20:00,0.0294,0.0259,0.0277,
調布 (Chofu),2022-01-13,18:01～19:00,0.0302,0.0253,0.0273,
調布 (Chofu),2022-01-13,17:01～18:00,0.0300,0.0255,0.0275,
調布 (Chofu),2022-01-13,16:01～17:00,0.0297,0.0255,0.0278,
調布 (Chofu),2022-01-13,15:01～16:00,0.0298,0.0259,0.0280,
調布 (Chofu),2022-01-13,14:01～15:00,0.0294,0.0257,0.0278,
調布 (Chofu),2022-01-13,13:01～14:00,0.0297,0.0263,0.0279,
調布 (Chofu),2022-01-13,12:01～13:00,0.0305,0.0262,0.0280,
調布 (Chofu),2022-01-13,11:01～12:00,0.0298,0.0257,0.0279,
調布 (Chofu),2022-01-13,10:01～11:00,0.0312,0.0270,0.0285,
調布 (Chofu),2022-01-13,09:01～10:00,0.0310,0.0272,0.0290,
調布 (Chofu),2022-01-13,08:01～09:00,0.0322,0.0281,0.0299,
調布 (Chofu),2022-01-13,07:01～08:00,0.0322,0.0281,0.0300,
調布 (Chofu),2022-01-13,06:01～07:00,0.0305,0.0268,0.0286,
調布 (Chofu),2022-01-13,05:01～06:00,0.0314,0.0262,0.0286,
調布 (Chofu),2022-01-13,04:01～05:00,0.0311,0.0274,0.0295,
調布 (Chofu),2022-01-13,03:01～04:00,0.0315,0.0277,0.0298,
調布 (Chofu),2022-01-13,02:01～03:00,0.0323,0.0274,0.0295,
調布 (Chofu),2022-01-13,01:01～02:00,0.0313,0.0273,0.0293,
調布 (Chofu),2022-01-13,00:01～01:00,0.0314,0.0274,0.0291,
調布 (Chofu),2022-01-12,23:01～24:00,0.0302,0.0264,0.0285,
調布 (Chofu),2022-01-12,22:01～23:00,0.0309,0.0254,0.0282,
調布 (Chofu),2022-01-12,21:01～22:00,0.0298,0.0259,0.0277,
調布 (Chofu),2022-01-12,20:01～21:00,0.0298,0.0258,0.0277,
調布 (Chofu),2022-01-12,19:01～20:00,0.0298,0.0256,0.0275,
調布 (Chofu),2022-01-12,18:01～19:00,0.0294,0.0254,0.0275,
調布 (Chofu),2022-01-12,17:01～18:00,0.0300,0.0253,0.0277,
調布 (Chofu),2022-01-12,16:01～17:00,0.0299,0.0256,0.0276,
調布 (Chofu),2022-01-12,15:01～16:00,0.0293,0.0257,0.0277,
調布 (Chofu),2022-01-12,14:01～15:00,0.0298,0.0262,0.0278,
調布 (Chofu),2022-01-12,13:01～14:00,0.0300,0.0261,0.0276,
調布 (Chofu),2022-01-12,12:01～13:00,0.0297,0.0252,0.0278,
調布 (Chofu),2022-01-12,11:01～12:00,0.0297,0.0249,0.0277,
調布 (Chofu),2022-01-12,10:01～11:00,0.0295,0.0257,0.0276,
調布 (Chofu),2022-01-12,09:01～10:00,0.0303,0.0255,0.0281,
調布 (Chofu),2022-01-12,08:01～09:00,0.0316,0.0262,0.0282,
調布 (Chofu),2022-01-12,07:01～08:00,0.0310,0.0263,0.0281,
調布 (Chofu),2022-01-12,06:01～07:00,0.0299,0.0263,0.0282,
調布 (Chofu),2022-01-12,05:01～06:00,0.0297,0.0258,0.0278,
調布 (Chofu),2022-01-12,04:01～05:00,0.0295,0.0260,0.0277,
調布 (Chofu),2022-01-12,03:01～04:00,0.0294,0.0262,0.0276,
調布 (Chofu),2022-01-12,02:01～03:00,0.0312,0.0262,0.0278,
調布 (Chofu),2022-01-12,01:01～02:00,0.0302,0.0260,0.0281,
調布 (Chofu),2022-01-12,00:01～01:00,0.0304,0.0261,0.0280,
調布 (Chofu),2022-01-11,23:01～24:00,0.0302,0.0264,0.0281,
調布 (Chofu),2022-01-11,22:01～23:00,0.0302,0.0262,0.0280,
調布 (Chofu),2022-01-11,21:01～22:00,0.0312,0.0254,0.0276,
調布 (Chofu),2022-01-11,20:01～21:00,0.0301,0.0254,0.0278,
調布 (Chofu),2022-01-11,19:01～20:00,0.0326,0.0270,0.0294,
調布 (Chofu),2022-01-11,18:01～19:00,0.0416,0.0309,0.0348,
調布 (Chofu),2022-01-11,17:01～18:00,0.0433,0.0317,0.0379,
調布 (Chofu),2022-01-11,16:01～17:00,0.0369,0.0314,0.0338,
調布 (Chofu),2022-01-11,15:01～16:00,0.0471,0.0326,0.0389,
調布 (Chofu),2022-01-11,14:01～15:00,0.0531,0.0441,0.0486,
調布 (Chofu),2022-01-11,13:01～14:00,0.0493,0.0362,0.0421,
調布 (Chofu),2022-01-11,12:01～13:00,0.0377,0.0290,0.0335,
調布 (Chofu),2022-01-11,11:01～12:00,0.0305,0.0261,0.0278,
調布 (Chofu),2022-01-11,10:01～11:00,0.0324,0.0267,0.0293,
調布 (Chofu),2022-01-11,09:01～10:00,0.0395,0.0299,0.0341,
調布 (Chofu),2022-01-11,08:01～09:00,0.0434,0.0363,0.0400,
調布 (Chofu),2022-01-11,07:01～08:00,0.0442,0.0363,0.0406,
調布 (Chofu),2022-01-11,06:01～07:00,0.0392,0.0326,0.0359,
調布 (Chofu),2022-01-11,05:01～06:00,0.0342,0.0262,0.0308,
調布 (Chofu),2022-01-11,04:01～05:00,0.0300,0.0256,0.0279,
調布 (Chofu),2022-01-11,03:01～04:00,0.0300,0.0262,0.0280,
調布 (Chofu),2022-01-11,02:01～03:00,0.0300,0.0263,0.0281,
調布 (Chofu),2022-01-11,01:01～02:00,0.0299,0.0256,0.0279,
調布 (Chofu),2022-01-11,00:01～01:00,0.0301,0.0258,0.0278,
調布 (Chofu),2022-01-10,23:01～24:00,0.0292,0.0253,0.0275,
調布 (Chofu),2022-01-10,22:01～23:00,0.0299,0.0257,0.0273,
調布 (Chofu),2022-01-10,21:01～22:00,0.0291,0.0253,0.0276,
調布 (Chofu),2022-01-10,20:01～21:00,0.0299,0.0256,0.0276,
調布 (Chofu),2022-01-10,19:01～20:00,0.0298,0.0253,0.0274,
調布 (Chofu),2022-01-10,18:01～19:00,0.0288,0.0251,0.0274,
調布 (Chofu),2022-01-10,17:01～18:00,0.0292,0.0248,0.0274,
調布 (Chofu),2022-01-10,16:01～17:00,0.0299,0.0252,0.0276,
調布 (Chofu),2022-01-10,15:01～16:00,0.0304,0.0259,0.0279,
調布 (Chofu),2022-01-10,14:01～15:00,0.0302,0.0257,0.0278,
調布 (Chofu),2022-01-10,13:01～14:00,0.0302,0.0264,0.0280,
調布 (Chofu),2022-01-10,12:01～13:00,0.0298,0.0260,0.0277,
調布 (Chofu),2022-01-10,11:01～12:00,0.0316,0.0260,0.0282,
調布 (Chofu),2022-01-10,10:01～11:00,0.0300,0.0267,0.0283,
調布 (Chofu),2022-01-10,09:01～10:00,0.0303,0.0266,0.0284,
調布 (Chofu),2022-01-10,08:01～09:00,0.0307,0.0266,0.0285,
調布 (Chofu),2022-01-10,07:01～08:00,0.0307,0.0266,0.0284,
調布 (Chofu),2022-01-10,06:01～07:00,0.0306,0.0261,0.0281,
調布 (Chofu),2022-01-10,05:01～06:00,0.0303,0.0262,0.0280,
調布 (Chofu),2022-01-10,04:01～05:00,0.0309,0.0256,0.0285,
調布 (Chofu),2022-01-10,03:01～04:00,0.0299,0.0261,0.0284,
調布 (Chofu),2022-01-10,02:01～03:00,0.0298,0.0260,0.0279,
調布 (Chofu),2022-01-10,01:01～02:00,0.0310,0.0261,0.0280,
調布 (Chofu),2022-01-10,00:01～01:00,0.0302,0.0263,0.0280,
